Norfolk Island Airport

Airport
ICAO code: 
YSNF
IATA Code: 
NLK
Summary
ICAO Region: 
APAC
Territory: 
Location: 
Norfolk Island, External territory of Australia
Serving: 
Norfolk Island
Elevation: 
371 ft
Coordinates: 
Aerial View: 
29° 2' 33" S, 167° 56' 17.002" E
Airport WX: 
Tropical Revolving Storm
Metar
Observation
YSNF 072330Z AUTO 07014KT 8000 // OVC006 24/21 Q1016
Station
Norfolk Island Airport
Date/Time
2021-12-07 23:30:00
Wind direction
70°
Wind speed
14 kts
Lowest cloud amount
overcast
Temperature
24°C
Dew point
21°C
Humidity
83%
QNH
1016 hPa
Weather condition
n/a

Norfolk Island Airport is the only airport on Norfolk Island, an external territory of Australia. The island is located in the Pacific Ocean between Australia, New Zealand, and New Caledonia.

Climatology

Temperate Marine climate/Oceanic climate (Köppen climate classification Cfb). Moderately cool summer and comparatively warm winter. The temperature almost never falls below 10 °C (50 °F) or rises above 26 °C (79 °F).

Runways

Designator Length Width Surface Rops
4/22 1435 30 ASP Yes/Yes
11/29 1950 46 ASP Yes/Yes
Airport map: 
Aerial View: 

Accidents and Serious Incidents at or in the vicinity of YSNF

SKYbrary Partners:

Safety knowledge contributed by: